When you browse on this site, cookies collect data to enhance your experience and personalize the content and advertising you see.
Visit our Privacy Policy to learn more. By continuing to use the site, you agree to this use of cookies and data.
  • In Austria
  • List of Countries
  • For 7 days
  • Water Temperature
  • Weather Map
  • News
  • Weather Widgets
  • user-avatar
    Login

    Hourly Weather Vidisha

    Today, 25 May, Monday

    Time Temperature Precipitation Wind Pressure Humidity
    00:00 +36°C° 0 mm 4 mps 718 mmHg 15%
    01:00 +36°C° 0 mm 5 mps 718 mmHg 16%
    02:00 +35°C° 0 mm 6 mps 717 mmHg 16%
    03:00 +35°C° 0 mm 5 mps 718 mmHg 18%
    04:00 +34°C° 0 mm 5 mps 718 mmHg 20%
    05:00 +33°C° 0 mm 4 mps 718 mmHg 21%
    06:00 +35°C° 0 mm 6 mps 719 mmHg 20%
    07:00 +39°C° 0 mm 7 mps 719 mmHg 18%
    08:00 +41°C° 0 mm 8 mps 720 mmHg 16%
    09:00 +44°C° 0 mm 7 mps 720 mmHg 14%
    10:00 +46°C° 0 mm 6 mps 720 mmHg 12%
    11:00 +47°C° 0 mm 5 mps 720 mmHg 11%
    12:00 +48°C° 0 mm 5 mps 719 mmHg 10%
    13:00 +48°C° 0 mm 5 mps 719 mmHg 9%
    14:00 +49°C° 0 mm 4 mps 718 mmHg 9%
    15:00 +49°C° 0 mm 4 mps 717 mmHg 8%
    16:00 +49°C° 0 mm 4 mps 717 mmHg 8%
    17:00 +48°C° 0 mm 4 mps 717 mmHg 8%
    18:00 +45°C° 0 mm 3 mps 717 mmHg 9%
    19:00 +41°C° 0 mm 2 mps 717 mmHg 10%
    20:00 +39°C° 0 mm 2 mps 717 mmHg 11%
    21:00 +38°C° 0 mm 2 mps 718 mmHg 12%
    22:00 +37°C° 0 mm 3 mps 718 mmHg 13%
    23:00 +36°C° 0 mm 3 mps 718 mmHg 14%

    Tomorrow, 26 May, Tuesday

    Time Temperature Precipitation Wind Pressure Humidity
    00:00 +35°C° 0 mm 4 mps 717 mmHg 15%
    01:00 +35°C° 0 mm 4 mps 717 mmHg 16%
    02:00 +35°C° 0 mm 5 mps 717 mmHg 17%
    03:00 +34°C° 0 mm 4 mps 717 mmHg 18%
    04:00 +33°C° 0 mm 4 mps 717 mmHg 19%
    05:00 +33°C° 0 mm 4 mps 717 mmHg 20%
    06:00 +35°C° 0 mm 5 mps 718 mmHg 18%
    07:00 +39°C° 0 mm 6 mps 719 mmHg 16%
    08:00 +41°C° 0 mm 7 mps 720 mmHg 14%
    09:00 +44°C° 0 mm 6 mps 719 mmHg 13%
    10:00 +46°C° 0 mm 5 mps 719 mmHg 12%
    11:00 +48°C° 0 mm 5 mps 719 mmHg 11%
    12:00 +49°C° 0 mm 5 mps 718 mmHg 10%
    13:00 +49°C° 0 mm 5 mps 718 mmHg 9%
    14:00 +50°C° 0 mm 5 mps 717 mmHg 8%
    15:00 +50°C° 0 mm 5 mps 716 mmHg 8%
    16:00 +50°C° 0 mm 5 mps 716 mmHg 8%
    17:00 +49°C° 0 mm 5 mps 716 mmHg 7%
    18:00 +47°C° 0 mm 5 mps 716 mmHg 9%
    19:00 +45°C° 0 mm 5 mps 716 mmHg 10%
    20:00 +41°C° 0 mm 5 mps 717 mmHg 12%
    21:00 +40°C° 0 mm 5 mps 717 mmHg 13%
    22:00 +40°C° 0 mm 5 mps 717 mmHg 14%
    23:00 +39°C° 0 mm 5 mps 717 mmHg 15%

    Day after tomorrow, 27 May, Wednesday

    Time Temperature Precipitation Wind Pressure Humidity
    00:00 +38°C° 0 mm 6 mps 717 mmHg 16%
    01:00 +38°C° 0 mm 6 mps 717 mmHg 17%
    02:00 +36°C° 0 mm 6 mps 717 mmHg 18%
    03:00 +35°C° 0 mm 6 mps 716 mmHg 20%
    04:00 +34°C° 0 mm 6 mps 716 mmHg 23%
    05:00 +33°C° 0 mm 6 mps 716 mmHg 26%
    06:00 +35°C° 0 mm 6 mps 717 mmHg 27%
    07:00 +36°C° 0 mm 6 mps 718 mmHg 28%
    08:00 +39°C° 0 mm 6 mps 718 mmHg 28%
    09:00 +41°C° 0 mm 6 mps 718 mmHg 24%
    10:00 +45°C° 0 mm 6 mps 718 mmHg 20%
    11:00 +47°C° 0 mm 6 mps 718 mmHg 16%
    12:00 +48°C° 0 mm 6 mps 717 mmHg 14%
    13:00 +49°C° 0 mm 5 mps 716 mmHg 12%
    14:00 +50°C° 0 mm 5 mps 716 mmHg 10%
    15:00 +49°C° 0 mm 5 mps 715 mmHg 10%
    16:00 +49°C° 0 mm 5 mps 715 mmHg 10%
    17:00 +49°C° 0 mm 6 mps 714 mmHg 9%
    18:00 +47°C° 0 mm 5 mps 715 mmHg 11%
    19:00 +45°C° 0 mm 5 mps 715 mmHg 13%
    20:00 +42°C° 0 mm 5 mps 715 mmHg 15%
    21:00 +41°C° 0 mm 5 mps 715 mmHg 16%
    22:00 +41°C° 0 mm 6 mps 716 mmHg 17%
    23:00 +40°C° 0 mm 6 mps 716 mmHg 19%

    28 May, Thursday

    Time Temperature Precipitation Wind Pressure Humidity
    00:00 +39°C° 0 mm 6 mps 716 mmHg 23%
    01:00 +36°C° 0 mm 6 mps 715 mmHg 27%
    02:00 +35°C° 0 mm 6 mps 715 mmHg 31%
    03:00 +34°C° 0 mm 6 mps 715 mmHg 38%
    04:00 +33°C° 0 mm 5 mps 715 mmHg 45%
    05:00 +32°C° 0 mm 5 mps 716 mmHg 52%
    06:00 +33°C° 0 mm 6 mps 716 mmHg 46%
    07:00 +35°C° 0 mm 7 mps 717 mmHg 40%
    08:00 +38°C° 0 mm 7 mps 718 mmHg 35%
    09:00 +40°C° 0 mm 7 mps 718 mmHg 28%
    10:00 +44°C° 0 mm 7 mps 717 mmHg 22%
    11:00 +46°C° 0 mm 7 mps 717 mmHg 15%
    12:00 +47°C° 0 mm 6 mps 717 mmHg 14%
    13:00 +48°C° 0 mm 6 mps 716 mmHg 12%
    14:00 +49°C° 0 mm 5 mps 715 mmHg 10%
    15:00 +49°C° 0 mm 5 mps 715 mmHg 10%
    16:00 +49°C° 0 mm 6 mps 714 mmHg 9%
    17:00 +48°C° 0 mm 6 mps 714 mmHg 9%
    18:00 +46°C° 0 mm 6 mps 714 mmHg 11%
    19:00 +43°C° 0 mm 5 mps 715 mmHg 13%
    20:00 +41°C° 0 mm 5 mps 715 mmHg 15%
    21:00 +40°C° 0 mm 5 mps 716 mmHg 17%
    22:00 +40°C° 0 mm 6 mps 716 mmHg 19%
    23:00 +39°C° 0 mm 6 mps 716 mmHg 20%

    29 May, Friday

    Time Temperature Precipitation Wind Pressure Humidity
    00:00 +38°C° 0 mm 7 mps 716 mmHg 25%
    01:00 +36°C° 0 mm 7 mps 716 mmHg 29%
    02:00 +35°C° 0 mm 7 mps 716 mmHg 34%
    03:00 +34°C° 0 mm 7 mps 716 mmHg 40%
    04:00 +32°C° 0 mm 6 mps 716 mmHg 46%
    05:00 +30°C° 0 mm 5 mps 716 mmHg 52%
    06:00 +33°C° 0 mm 5 mps 717 mmHg 46%
    07:00 +35°C° 0 mm 5 mps 718 mmHg 40%
    08:00 +38°C° 0 mm 6 mps 718 mmHg 34%
    09:00 +40°C° 0 mm 6 mps 718 mmHg 28%
    10:00 +42°C° 0 mm 6 mps 718 mmHg 22%
    11:00 +46°C° 0 mm 6 mps 718 mmHg 16%
    12:00 +47°C° 0 mm 6 mps 718 mmHg 14%
    13:00 +47°C° 0 mm 6 mps 717 mmHg 12%
    14:00 +48°C° 0 mm 6 mps 716 mmHg 10%
    15:00 +48°C° 0 mm 6 mps 716 mmHg 10%
    16:00 +47°C° 0 mm 6 mps 716 mmHg 10%
    17:00 +47°C° 0 mm 6 mps 715 mmHg 10%
    18:00 +43°C° 0 mm 5 mps 716 mmHg 13%
    19:00 +41°C° 0 mm 5 mps 716 mmHg 15%
    20:00 +38°C° 0 mm 4 mps 716 mmHg 17%
    21:00 +37°C° 0 mm 4 mps 717 mmHg 19%
    22:00 +37°C° 0 mm 5 mps 717 mmHg 22%
    23:00 +36°C° 0 mm 5 mps 717 mmHg 24%

    30 May, Saturday

    Time Temperature Precipitation Wind Pressure Humidity
    00:00 +35°C° 0 mm 5 mps 717 mmHg 28%
    01:00 +34°C° 0 mm 5 mps 717 mmHg 32%
    02:00 +33°C° 0 mm 5 mps 717 mmHg 36%
    03:00 +33°C° 0 mm 5 mps 718 mmHg 45%
    04:00 +32°C° 0 mm 5 mps 718 mmHg 53%
    05:00 +30°C° 0 mm 5 mps 718 mmHg 62%
    06:00 +32°C° 0 mm 5 mps 719 mmHg 57%
    07:00 +34°C° 0 mm 5 mps 719 mmHg 53%
    08:00 +35°C° 0 mm 6 mps 720 mmHg 49%
    09:00 +39°C° 0 mm 5 mps 720 mmHg 40%
    10:00 +41°C° 0 mm 5 mps 720 mmHg 30%
    11:00 +43°C° 0 mm 5 mps 720 mmHg 21%
    12:00 +46°C° 0 mm 5 mps 719 mmHg 17%
    13:00 +47°C° 0 mm 5 mps 719 mmHg 13%
    14:00 +48°C° 0 mm 6 mps 718 mmHg 9%
    15:00 +48°C° 0 mm 5 mps 718 mmHg 9%
    16:00 +47°C° 0 mm 5 mps 717 mmHg 9%
    17:00 +47°C° 0 mm 5 mps 717 mmHg 9%
    18:00 +43°C° 0 mm 4 mps 717 mmHg 11%
    19:00 +41°C° 0 mm 4 mps 717 mmHg 13%
    20:00 +38°C° 0 mm 3 mps 718 mmHg 15%
    21:00 +37°C° 0 mm 3 mps 718 mmHg 17%
    22:00 +36°C° 0 mm 3 mps 718 mmHg 18%
    23:00 +35°C° 0 mm 3 mps 719 mmHg 20%
    Show more